Wind_Speed
37 37 36 38 40 42 42 44 45 46 45 43 40 39 39 41 37 42 41 36 36 37 41 42 37 34 28 24 19 17 20 19 16 13 9 6 3 4 4 7 14 12 14 15
41 39 39 41 45 47 48 46 48 50 50 47 46 42 46 45 47 46 49 47 44 43 43 44 43 39 35 30 24 21 19 23 23 20 16 12 9 5 3 4 7 17 18 17
43 43 45 45 47 48 52 54 54 54 53 52 52 43 50 53 56 56 54 52 50 53 47 47 44 45 40 36 32 26 23 20 25 26 22 17 14 10 6 3 4 3 12 21
47 46 45 49 52 53 55 57 58 60 58 52 61 53 50 58 62 60 56 52 52 55 52 55 46 49 45 44 38 32 30 25 23 26 26 23 19 16 12 9 4 1 4 7
51 51 47 48 54 55 58 60 63 64 61 58 57 65 62 62 59 53 45 48 49 56 58 58 49 55 52 47 43 38 35 31 25 26 28 26 23 19 18 12 10 4 3 7
52 54 52 52 56 58 59 61 64 64 62 60 58 60 58 55 48 35 34 40 48 55 60 62 54 57 55 52 47 44 39 36 30 27 27 27 25 22 20 18 14 10 5 6
56 58 55 55 56 59 60 63 65 65 64 65 70 70 58 47 35 26 30 39 43 58 66 67 55 57 56 55 53 48 44 42 36 33 29 27 24 23 23 21 18 10 10 10
59 62 63 63 58 57 64 68 69 67 64 64 70 69 56 37 28 28 34 45 44 62 63 65 50 54 55 56 55 50 48 46 41 37 31 28 25 24 24 23 21 22 20 15
60 61 68 66 66 62 66 70 71 69 67 65 65 66 43 27 24 25 24 30 30 43 52 53 50 44 49 50 56 54 50 48 45 40 35 33 29 26 25 25 22 24 22 18
62 63 68 70 68 68 69 68 70 71 73 68 67 54 37 24 13 21 22 15 19 31 43 45 45 58 55 56 59 58 53 51 47 44 40 36 32 28 27 29 28 27 25 25
65 66 67 69 68 69 73 72 71 71 77 71 67 56 30 17 19 2 13 21 19 16 10 35 50 50 56 55 51 54 55 55 51 46 43 41 38 34 32 32 32 30 31 29
69 69 66 67 70 70 73 71 69 70 73 71 63 52 28 12 2 16 24 30 17 36 35 61 54 50 54 59 51 49 55 53 51 47 43 45 44 41 42 40 38 36 35 36
71 70 66 68 75 70 71 70 72 71 68 67 58 47 21 1 26 24 39 34 35 29 42 53 46 57 57 56 47 49 44 50 51 48 45 44 46 45 49 47 42 38 32 30
71 69 68 71 73 78 73 72 72 75 71 70 50 35 4 11 45 40 29 50 41 47 43 37 48 55 59 54 47 45 34 34 35 23 30 38 40 46 47 46 39 31 25 21
71 69 71 74 76 76 75 73 75 76 71 67 51 22 24 31 50 37 30 47 44 61 45 42 54 54 58 53 45 39 26 18 21 29 24 34 31 33 32 24 30 21 24 31
75 75 75 76 78 76 73 76 77 74 70 52 37 8 17 38 43 35 30 33 30 44 41 49 58 54 46 38 46 43 36 33 33 18 3 19 24 25 27 62 38 35 36 38
79 78 80 79 80 76 78 75 74 70 55 37 28 19 39 43 31 34 43 23 25 48 47 44 51 47 40 54 51 51 47 43 35 28 26 30 27 11 33 70 53 67 48 41
82 83 84 81 79 79 80 74 73 63 46 13 27 22 36 41 45 49 46 36 32 47 35 50 54 50 46 55 67 55 54 48 41 40 54 56 53 46 43 81 75 42 33 40
85 85 85 81 81 82 80 73 65 38 31 24 39 43 42 30 42 31 35 26 29 27 37 62 60 58 49 51 48 66 63 61 50 43 47 55 64 64 74 61 59 40 38 49
87 88 85 83 83 81 76 69 47 32 32 40 35 34 30 30 31 40 21 17 20 27 45 70 71 65 62 65 55 68 68 68 62 55 56 54 63 76 55 56 45 58 55 61
88 85 84 80 77 76 72 64 40 23 40 44 42 40 20 41 36 35 32 38 36 32 38 64 79 61 64 58 52 65 67 68 63 60 60 63 64 67 67 66 56 69 63 46
88 84 82 78 75 72 66 54 44 22 24 36 51 33 36 40 33 29 28 30 40 43 37 48 76 86 78 74 63 59 64 71 70 65 68 73 76 80 84 77 65 69 70 54
86 82 77 72 71 66 56 35 39 33 27 28 40 27 43 40 33 19 27 43 43 47 42 42 58 79 79 89 90 84 73 72 74 77 79 77 79 80 89 80 70 79 77 60
81 77 73 68 59 53 46 43 42 36 31 38 39 31 54 47 35 34 34 38 56 49 50 48 48 63 82 86 89 90 82 74 78 85 87 87 88 86 88 82 79 84 81 80
70 67 59 54 45 41 37 35 31 24 31 44 46 43 59 49 40 41 36 45 52 61 59 49 47 58 62 72 80 86 86 80 82 82 89 90 89 83 83 81 77 65 73 79
51 47 44 40 34 29 25 20 18 23 24 48 52 54 56 55 52 49 47 50 50 61 63 52 40 44 53 62 68 76 79 83 81 87 87 88 88 83 78 77 73 71 68 81
Wind_Direction
323 322 325 328 330 334 332 333 331 326 318 319 309 307 297 290 279 277 274 264 263 248 242 237 236 237 225 219 231 237 244 228 228 228 233 251 290 2 201 216 211 218 222 215
319 317 320 327 327 330 330 331 332 329 322 318 307 307 301 295 284 275 272 264 259 251 242 234 235 234 230 221 221 227 237 243 234 233 229 240 256 287 340 189 201 213 222 234
317 318 321 324 324 326 329 330 331 329 324 317 305 307 299 295 287 278 270 261 252 249 241 237 225 231 231 226 218 223 231 237 241 236 236 238 244 250 243 261 200 197 228 233
316 316 321 324 324 327 328 329 329 327 324 319 310 309 308 297 286 278 267 256 246 241 237 236 218 229 227 228 223 217 226 229 236 240 236 234 236 250 248 253 249 248 260 225
313 315 319 323 323 326 326 328 328 325 323 319 312 312 312 298 285 272 266 253 235 228 229 232 221 223 225 226 224 220 225 224 228 234 237 233 232 236 245 246 262 277 271 226
311 313 319 322 324 324 322 326 326 324 321 321 314 313 309 297 286 282 255 242 237 220 223 227 219 221 221 225 225 224 223 224 224 230 233 235 231 231 235 245 256 268 260 230
311 312 315 317 321 321 322 324 324 324 324 326 324 323 318 302 295 261 238 249 230 214 218 224 214 218 219 221 225 225 224 225 224 226 234 235 238 234 240 245 250 249 271 269
314 316 316 317 320 320 323 326 326 326 326 325 325 324 319 312 289 259 227 226 216 224 221 224 217 219 221 219 224 224 226 226 224 229 230 235 239 236 240 244 254 256 264 271
313 315 315 318 320 321 323 325 327 325 326 325 329 326 323 318 299 291 242 246 241 245 226 223 231 233 233 225 224 226 225 230 227 229 230 231 237 236 236 246 252 258 258 270
311 314 313 317 319 320 323 324 324 326 325 326 330 329 316 316 292 236 246 241 224 246 244 240 216 214 225 225 222 223 225 229 229 229 229 233 234 239 240 244 250 261 273 279
310 310 312 314 315 319 321 325 325 327 324 328 332 327 317 2 336 26 131 120 153 94 245 272 235 225 228 231 231 229 224 229 229 230 231 233 236 238 242 247 254 258 266 275
308 309 312 312 313 318 320 322 323 325 325 324 326 324 330 8 93 175 144 158 211 262 196 214 252 248 235 229 228 235 230 230 232 233 236 235 237 243 251 255 261 269 277 278
305 308 310 311 312 315 318 318 319 322 324 321 323 311 318 322 160 172 181 169 221 244 252 246 245 243 237 236 227 237 236 234 236 236 240 248 252 251 254 258 260 268 266 262
304 307 308 310 312 315 318 317 318 322 321 320 311 304 255 155 161 165 207 199 222 260 255 252 247 245 233 238 229 230 237 235 243 247 241 245 245 250 253 259 268 248 252 273
303 305 307 309 310 314 315 315 317 319 317 320 308 299 184 154 163 174 201 210 239 247 245 247 242 236 233 237 231 227 228 207 203 220 220 224 235 260 262 269 251 250 286 292
302 304 305 307 308 311 311 312 317 315 318 314 306 249 175 174 170 186 171 202 244 232 236 253 230 228 237 243 237 221 208 208 202 188 20 253 240 278 264 265 247 265 277 277
300 302 303 306 307 309 307 314 316 315 317 307 300 210 193 204 196 217 197 199 229 233 244 228 213 204 214 199 220 219 210 209 211 209 243 256 222 231 196 228 259 268 264 276
298 301 302 304 306 305 308 316 313 317 313 323 288 229 242 230 227 215 227 233 251 251 241 211 200 206 201 222 219 218 213 211 197 183 198 217 238 205 208 227 240 243 269 279
298 298 300 303 303 304 309 312 319 320 294 247 245 252 274 249 226 218 226 247 274 240 243 202 201 193 204 209 214 210 212 211 205 210 211 209 216 206 212 222 238 236 260 276
295 297 299 300 301 303 309 310 309 286 262 257 272 267 260 217 178 195 197 229 267 241 232 202 201 206 218 220 225 208 209 214 210 217 202 210 215 212 219 218 250 242 239 253
292 293 294 296 299 301 303 306 300 269 252 254 259 271 217 165 166 175 191 228 228 236 224 209 205 210 218 219 204 206 212 215 214 217 219 224 222 215 216 224 231 228 235 255
290 290 293 295 296 298 301 296 285 261 238 245 253 258 178 166 166 189 200 223 223 225 227 219 213 215 219 224 218 216 224 223 228 224 222 225 226 214 221 226 224 223 228 241
287 288 290 291 292 294 293 275 268 269 270 233 231 220 186 174 176 194 214 216 227 229 227 221 220 220 221 226 231 234 227 224 228 224 221 226 227 228 224 230 239 236 235 224
284 287 288 289 289 285 279 267 259 258 244 209 214 211 182 183 193 207 225 228 228 229 233 232 227 225 225 226 230 232 232 228 224 230 233 233 233 238 234 234 245 240 241 233
284 284 286 285 284 277 267 261 253 233 234 211 203 203 199 197 204 211 229 238 235 232 231 237 240 227 224 228 230 234 233 231 228 232 233 230 238 239 244 246 242 250 245 237
281 281 282 282 278 265 249 231 205 224 228 211 215 201 199 201 209 214 220 232 243 239 238 236 241 243 238 230 229 233 233 231 228 230 231 235 236 242 247 247 253 249 245 235
Height
10936 10932 10929 10925 10920 10917 10914 10909 10904 10898 10894 10894 10890 10888 10884 10882 10884 10880 10881 10885 10886 10889 10890 10898 10905 10910 10913 10915 10918 10919 10922 10923 10924 10925 10927 10928 10929 10929 10929 10930 10932 10934 10935 10936
10929 10926 10923 10918 10911 10907 10903 10901 10897 10892 10885 10881 10876 10879 10873 10871 10868 10869 10868 10872 10874 10877 10880 10885 10893 10901 10906 10909 10911 10914 10916 10919 10920 10922 10924 10926 10927 10928 10928 10929 10930 10931 10934 10935
10920 10916 10912 10909 10904 10900 10893 10888 10885 10881 10876 10869 10860 10870 10860 10854 10848 10847 10850 10853 10858 10861 10868 10871 10883 10888 10897 10902 10904 10908 10911 10913 10916 10918 10921 10923 10925 10926 10928 10929 10930 10930 10931 10933
10911 10909 10906 10900 10892 10888 10883 10878 10873 10867 10863 10861 10838 10846 10849 10834 10822 10821 10825 10830 10836 10844 10853 10857 10871 10875 10885 10891 10898 10901 10904 10907 10909 10913 10916 10918 10921 10924 10925 10927 10929 10929 10929 10930
10902 10898 10898 10894 10885 10879 10873 10866 10861 10854 10848 10843 10837 10818 10820 10806 10795 10794 10803 10809 10814 10826 10834 10842 10858 10863 10870 10881 10889 10893 10896 10901 10903 10906 10909 10914 10917 10920 10922 10925 10926 10927 10928 10927
10894 10888 10887 10883 10875 10869 10864 10859 10852 10842 10836 10830 10821 10815 10801 10781 10776 10783 10787 10793 10805 10809 10819 10825 10844 10850 10860 10869 10879 10885 10889 10893 10897 10900 10904 10909 10913 10916 10919 10921 10923 10923 10926 10927
10882 10877 10878 10875 10871 10861 10853 10849 10842 10831 10820 10808 10797 10787 10777 10766 10765 10767 10774 10785 10790 10791 10798 10810 10832 10842 10848 10858 10866 10876 10882 10886 10891 10895 10900 10905 10910 10913 10914 10917 10920 10922 10923 10925
10870 10860 10859 10857 10859 10853 10840 10832 10824 10816 10811 10803 10788 10774 10761 10761 10754 10757 10764 10765 10775 10785 10791 10806 10829 10836 10840 10849 10857 10867 10873 10879 10885 10890 10896 10901 10905 10909 10911 10912 10914 10916 10919 10922
10860 10856 10843 10843 10839 10836 10830 10821 10812 10805 10797 10791 10784 10764 10757 10753 10750 10757 10765 10767 10780 10779 10790 10805 10856 10842 10842 10847 10851 10857 10866 10872 10879 10885 10890 10895 10899 10903 10907 10908 10909 10909 10910 10913
10851 10848 10835 10831 10827 10820 10818 10814 10804 10793 10782 10776 10770 10760 10752 10748 10745 10747 10748 10760 10775 10787 10790 10796 10808 10838 10828 10836 10842 10847 10857 10863 10872 10877 10882 10888 10893 10897 10901 10902 10903 10905 10906 10909
10841 10836 10830 10822 10817 10811 10803 10797 10791 10783 10764 10760 10751 10747 10745 10749 10745 10750 10752 10764 10763 10784 10771 10783 10807 10808 10819 10829 10844 10848 10851 10854 10863 10870 10877 10883 10887 10891 10892 10894 10898 10899 10899 10900
10826 10822 10821 10811 10803 10803 10792 10788 10782 10777 10760 10749 10742 10740 10745 10750 10745 10745 10751 10763 10772 10773 10788 10789 10796 10803 10805 10817 10833 10844 10849 10854 10861 10868 10872 10876 10880 10884 10884 10887 10890 10893 10894 10893
10814 10810 10807 10801 10786 10794 10787 10778 10767 10763 10759 10742 10739 10727 10742 10744 10742 10739 10748 10748 10758 10773 10789 10786 10792 10798 10800 10809 10832 10833 10845 10851 10856 10861 10865 10871 10875 10878 10879 10881 10882 10883 10882 10881
10802 10798 10793 10787 10781 10768 10771 10763 10756 10747 10741 10733 10728 10728 10729 10736 10739 10732 10745 10749 10759 10761 10767 10770 10779 10790 10793 10804 10822 10828 10838 10843 10850 10859 10858 10863 10867 10867 10869 10874 10877 10877 10879 10879
10788 10787 10781 10775 10769 10763 10755 10751 10742 10735 10731 10724 10717 10720 10720 10726 10734 10741 10748 10752 10757 10755 10757 10765 10775 10782 10791 10802 10813 10824 10831 10833 10835 10837 10841 10846 10852 10860 10864 10869 10872 10871 10871 10875
10772 10769 10766 10762 10755 10752 10746 10736 10734 10721 10717 10711 10710 10710 10713 10724 10722 10727 10731 10739 10749 10750 10756 10752 10764 10780 10788 10799 10806 10813 10815 10819 10825 10832 10847 10851 10858 10866 10867 10860 10858 10861 10859 10864
10756 10753 10747 10746 10740 10737 10729 10729 10721 10712 10705 10698 10694 10700 10695 10697 10708 10713 10720 10729 10730 10735 10742 10749 10759 10765 10776 10791 10784 10798 10802 10806 10817 10832 10847 10856 10864 10856 10857 10825 10841 10858 10851 10853
10741 10736 10730 10729 10723 10718 10712 10717 10703 10698 10694 10692 10687 10692 10691 10691 10700 10704 10716 10728 10727 10723 10734 10738 10744 10750 10758 10765 10771 10785 10790 10796 10802 10814 10815 10835 10844 10859 10849 10841 10851 10848 10849 10845
10723 10717 10713 10712 10706 10701 10700 10693 10686 10679 10678 10678 10670 10681 10680 10679 10689 10703 10711 10713 10711 10712 10714 10726 10733 10738 10745 10745 10755 10767 10769 10773 10786 10789 10794 10802 10807 10818 10823 10824 10826 10836 10848 10846
10706 10698 10697 10692 10685 10684 10683 10679 10676 10667 10670 10666 10668 10669 10670 10671 10679 10688 10698 10698 10698 10700 10706 10718 10724 10726 10728 10733 10743 10749 10751 10759 10767 10773 10778 10780 10781 10797 10808 10812 10818 10831 10841 10841
10687 10684 10682 10675 10671 10665 10664 10664 10666 10666 10661 10657 10658 10659 10662 10665 10670 10677 10681 10680 10686 10686 10692 10706 10715 10717 10720 10723 10731 10739 10742 10749 10750 10756 10759 10766 10774 10782 10789 10796 10807 10819 10825 10827
10664 10664 10661 10659 10653 10650 10653 10647 10648 10650 10652 10651 10649 10653 10657 10658 10663 10671 10677 10675 10676 10674 10679 10685 10696 10704 10710 10712 10721 10734 10737 10740 10739 10742 10746 10750 10759 10767 10772 10778 10788 10799 10800 10821
10642 10644 10645 10643 10636 10633 10636 10632 10630 10637 10641 10640 10640 10648 10648 10649 10655 10658 10661 10665 10663 10666 10668 10672 10679 10687 10694 10700 10705 10715 10726 10731 10734 10732 10735 10741 10746 10752 10757 10764 10773 10778 10788 10801
10621 10623 10623 10622 10622 10618 10618 10617 10620 10622 10627 10631 10635 10641 10639 10641 10644 10646 10650 10653 10655 10658 10661 10664 10669 10674 10679 10685 10691 10700 10709 10717 10722 10725 10729 10731 10736 10742 10747 10755 10765 10769 10772 10778
10603 10600 10601 10601 10604 10601 10600 10602 10608 10611 10614 10620 10626 10629 10631 10629 10633 10636 10641 10643 10647 10651 10652 10657 10662 10666 10670 10675 10678 10683 10693 10699 10707 10711 10711 10718 10723 10733 10739 10745 10753 10754 10754 10759
10583 10583 10584 10585 10586 10584 10586 10590 10596 10601 10606 10608 10614 10618 10620 10620 10622 10626 10630 10634 10637 10641 10647 10653 10655 10657 10660 10665 10668 10671 10678 10686 10692 10695 10697 10699 10705 10710 10717 10723 10729 10733 10737 10741